This demonstration page uses our WeatherBlox Daily Observations layout. Learn more.

39.01783, -85.05884

Hourly Observations for September 19, 2019

Temp ( °F °C ) Dew Point ( °F °C ) Humidity (%) Winds ( mph kmh ) Pressure ( in mb ) Visibility ( mi km ) Precip ( " mm )
12:52 am 00:52 Mostly Clear 69 20.6 51 10.6 53 53 E 8 13 30.06 1018 10 16.09344 0 0
1:52 am 01:52 Partly Cloudy 69 20.6 50 10 51 51 E 8 13 30.06 1018 10 16.09344 0 0
2:52 am 02:52 Mostly Cloudy 68 20 51 10.6 55 55 E 10 17 30.03 1017 10 16.09344 0 0
3:52 am 03:52 Mostly Cloudy 67 19.4 50 10 55 55 E 7 11 30.03 1017 10 16.09344 0 0
4:52 am 04:52 Partly Cloudy 66 18.9 51 10.6 59 59 E 7 11 30.03 1017 10 16.09344 0 0
5:52 am 05:52 Mostly Cloudy 67 19.4 51 10.6 57 57 E 7 11 30.03 1017 10 16.09344 0 0
6:52 am 06:52 Partly Cloudy 67 19.4 52 11.1 59 59 E 8 13 30.06 1018 10 16.09344 0 0
7:52 am 07:52 Mostly Cloudy 65 18.3 53 11.7 66 66 ESE 6 9 30.06 1018 10 16.09344 0 0
8:52 am 08:52 Mostly Cloudy 68 20 55 12.8 63 63 SE 8 13 30.06 1018 10 16.09344 0 0
9:52 am 09:52 Mostly Cloudy 71 21.7 60 15.6 68 68 SSE 9 15 30.09 1019 10 16.09344 0 0
10:52 am 10:52 Partly Cloudy 76 24.4 63 17.2 64 64 S 10 17 30.09 1019 10 16.09344 0 0
11:52 am 11:52 Mostly Sunny 79 26.1 64 17.8 60 60 SSE 7 11 30.09 1019 10 16.09344 0 0
12:52 pm 12:52 Mostly Sunny 82 27.8 64 17.8 55 55 VRB 3 6 30.09 1019 10 16.09344 0 0
1:52 pm 13:52 Mostly Sunny 84 28.9 64 17.8 51 51 VRB 5 7 30.06 1018 10 16.09344 0 0
2:52 pm 14:52 Mostly Sunny 85 29.4 63 17.2 48 48 VRB 6 9 30.06 1018 10 16.09344 0 0
3:52 pm 15:52 Partly Cloudy 86 30 62 16.7 45 45 Calm 30.03 1017 10 16.09344 0 0
4:52 pm 16:52 Mostly Cloudy 87 30.6 64 17.8 46 46 VRB 5 7 30.03 1017 10 16.09344 0 0
5:52 pm 17:52 Partly Cloudy 87 30.6 64 17.8 46 46 E 10 17 30.03 1017 10 16.09344 0 0
6:52 pm 18:52 Partly Cloudy 84 28.9 63 17.2 49 49 SE 12 19 30.03 1017 10 16.09344 0 0
7:52 pm 19:52 Mostly Cloudy 82 27.8 64 17.8 55 55 ESE 10 17 30.03 1017 10 16.09344 0 0
8:52 pm 20:52 Mostly Clear 79 26.1 65 18.3 62 62 ESE 12 19 30.06 1018 10 16.09344 0 0
9:52 pm 21:52 Mostly Clear 77 25 65 18.3 66 66 ESE 10 17 30.06 1018 10 16.09344 0 0
10:52 pm 22:52 Mostly Clear 75 23.9 64 17.8 69 69 SE 9 15 30.06 1018 10 16.09344 0 0
11:52 pm 23:52 Mostly Clear 72 22.2 64 17.8 76 76 S 7 11 30.06 1018 9 14.484096 0 0

Powered by AerisWeather